Overview Statistics Trail Chart Weather Telemetry Raw packets
 

This is the latest recevied weather packets stored in our database for station/object SR8WXL-13. If no packets are shown the sender has not sent any weather packets the latest 10 day(s).

<< 34 35 36 37 38 39 40 >>
Time Temp. Humidity Pressure Rain* Wind** Luminosity Snow
1787926419 27.22° C 38% 1033.4 hPa 0 mm - - -
1787925683 26.11° C 39% 1033.3 hPa 0 mm - - -
1787924885 27.22° C 38% 1033 hPa 0 mm - - -
1787923993 27.22° C 37% 1033.2 hPa 0 mm - - -
1787923178 27.22° C 37% 1033.4 hPa 0 mm - - -
1787922335 27.22° C 38% 1033.4 hPa 0 mm - - -
1787921519 27.22° C 38% 1033.8 hPa 0 mm - - -
1787920720 27.22° C 39% 1033.8 hPa 0 mm - - -
1787919895 26.11° C 39% 1034.1 hPa 0 mm - - -
1787919104 26.11° C 41% 1034.2 hPa 0 mm - - -
1787918265 25° C 41% 1034.2 hPa 0 mm - - -
1787917543 25° C 43% 1034.4 hPa 0 mm - - -
1787916819 25° C 43% 1034.5 hPa 0 mm - - -
1787916025 23.89° C 42% 1034.8 hPa 0 mm - - -
1787915154 23.89° C 43% 1034.5 hPa 0 mm - - -
1787914355 25° C 41% 1035.1 hPa 0 mm - - -
1787913459 23.89° C 42% 1034.9 hPa 0 mm - - -
1787912703 23.89° C 43% 1035.2 hPa 0 mm - - -
1787911944 22.78° C 45% 1035.3 hPa 0 mm - - -
1787911225 23.89° C 44% 1035.6 hPa 0 mm - - -
1787910404 23.89° C 42% 1035.7 hPa 0 mm - - -
1787909612 22.78° C 45% 1035.5 hPa 0 mm - - -
1787908790 22.78° C 47% 1035.7 hPa 0 mm - - -
1787907898 22.78° C 44% 1035.6 hPa 0 mm - - -
1787907074 22.78° C 47% 1035.7 hPa 0 mm - - -

* Rain latest hour (hover to see other rain measurements)
** Current wind speed in m/s (hover to see current wind gust speed)